Starlink 3109

operational
NORAD ID: 49143 Int'l Des: 2021-082 Owner: SPXS Country: US Constellation: starlink
LEOCIRCULAR

About Starlink 3109

Description loading...

Live Position

Loading 3D Globe...

Upcoming Passes

Altitude History

Altitude vs Time

uPlot chart will show altitude changes over time

Two-Line Element Set

1 49143U 21082P 25303.82517477 .00001649 00000-0 14901-3 0 9996
2 49143 69.9996 242.2641 0002678 273.8720 86.2133 14.97523771228128
Epoch: Oct 30, 2025 • Age: 5 hours

Current Status

Altitude 587.8 km
Velocity 7.57 km/s
Sub-Earth Point 69.80°N, 93.17°W
Launch Date Sep 14, 2021
Age 4.1 years
Type internet

Technical Details

Classification Payload
Mass 297.00 kg
Dry Mass 275.00 kg
Total Mass 297.00 kg
Length 0.20 m
Diameter 2.80 m
Span 9.00 m
Shape Box + pan
Manufacturer SPXS
Bus Type Starlink
Phase Status In Orbit
Owner/State SPXS/US

Large Constellations

Loading constellations...